Location: Newark
(44.6768°N, 22.5302°E)
Time: 13:59:59
(UTC+00:00)

UKube-1 - Pass Details

Date: 04 July 2022
Orbit: 608 x 615 km, 98.4° (Epoch: 18 August)

Event Time Altitude Azimuth Distance (km) Brightness Sun altitude
Rises 19:39:50 0° 26° (NNE) 2,893 ? -11.6°
Reaches altitude 10° 19:42:24 10° 41° (NE) 1,980 ? -11.9°
Maximum altitude 19:45:51 23° 95° (E) 1,305 ? -12.3°
Enters shadow 19:47:35 18° 128° (SE) 1,500 ? -12.5°
